Regional Weather Roundup
Issued by NWS

Home | Current Version | Previous Version | Text Only | Print | Product List | Glossary On
Versions: 1 2 3 4 5 6 7 8 9 10 11 12 13 14 15 16 17 18 19 20 21 22 23 24 25 26 27 28 29 30 31 32 33 34 35 36 37 38 39 40 41 42 43 44 45 46 47 48 49 50
000
ASUS44 KOUN 010400
RWROK

WEATHER ROUNDUP FOR OKLAHOMA
NATIONAL WEATHER SERVICE NORMAN OK
1100 PM CDT TUE SEP 30 2014

NOTE: "FAIR" INDICATES FEW OR NO CLOUDS BELOW 12,000 FEET WITH NO
      SIGNIFICANT WEATHER AND/OR OBSTRUCTIONS TO VISIBILITY.

OKZ001>007-009>012-014-015-017-010500-
NORTHWEST OKLAHOMA AND THE PANHANDLE

CITY           SKY/WX    TMP DP  RH WIND       PRES   REMARKS
GAGE           PTCLDY    73  58  59 S14       29.72S
$$

OKZ016-021>023-033>039-044-045-010500-
SOUTHWEST OKLAHOMA

CITY           SKY/WX    TMP DP  RH WIND       PRES   REMARKS
LAWTON/REGL    CLEAR     77  60  55 SE15      29.74F
FREDERICK      CLEAR     78  55  44 SE15      29.70S
CLINTON        PTCLDY    78  54  43 SE20      29.74F
HOBART         PTCLDY    78  54  43 S17       29.73S
$$

OKZ018>020-024>031-010500-
CENTRAL OKLAHOMA

CITY           SKY/WX    TMP DP  RH WIND       PRES   REMARKS
OKLAHOMA CITY  PTCLDY    76  64  66 SE15      29.76F
OKC/WILEY POST CLEAR     77  64  64 SE18G25   29.76F
STILLWATER     CLEAR     75  64  68 SE15      29.76S
GUTHRIE        CLEAR     76  65  68 SE14G21   29.75F
$$

OKZ008-013-054>072-010500-
NORTHEAST OKLAHOMA

CITY           SKY/WX    TMP DP  RH WIND       PRES   REMARKS
TULSA          MOCLDY    75  63  66 S13       29.80R
TULSA/JONES    MOCLDY    75  63  66 S9        29.80R
PONCA CITY     PTCLDY    75  64  68 SE16      29.75R
BARTLESVILLE   MOCLDY    72  65  78 SE7       29.80R
MUSKOGEE       CLEAR     70  64  81 SE7       29.82R
$$

OKZ032-040>043-046>053-073>077-010500-
SOUTH CENTRAL/SOUTHEAST OKLAHOMA

CITY           SKY/WX    TMP DP  RH WIND       PRES   REMARKS
MCALESTER      PTCLDY    72  64  76 E3        29.81S
$$




USA.gov is the U.S. government's official web portal to all federal, state and local government web resources and services.